Tracking 22879 objects as of 20-Apr-2021
HD Live streaming from Space Station
objects crossing your sky now

METEOR 2-17 DEB

Track METEOR 2-17 DEB now!
10-day predictions


NORAD ID: 45521
Int'l Code: 1988-005BB
Perigee: 922.7 km
Apogee: 949.0 km
Inclination: 82.5 °
Period: 103.6 minutes
Semi major axis: 7306 km
RCS: Unknown
Launch date: January 30, 1988
Source: Commonwealth of Independent States (former USSR) (CIS)
Launch site: PLESETSK MISSILE AND SPACE COMPLEX (PKMTR)

Note: This is SATELLITE DEBRIS
aabbcc
Your satellite tracking list
Your tracking list is empty




NASA's NSSDC Master Catalog

Two Line Element Set (TLE):
1 45521U 88005BB  21109.44021844  .00000400  00000-0  31263-3 0  9990
2 45521  82.5242   9.3937 0017985 302.4535  57.4889 13.89973286375423
Source of the keplerian elements: AFSPC